Time,TemperatureF,DewpointF,PressureIn,WindDirection,WindDirectionDegrees,WindSpeedMPH,WindSpeedGustMPH,Humidity,HourlyPrecipIn,Conditions,Clouds,dailyrainin,SoftwareType,DateUTC
2013-01-10 00:03:00,35.6,29.1,29.83,North,0,0.0,0.0,77,0.00,,OVC036,0.00,VWS V12.08,2013-01-10 08:03:00,
2013-01-10 00:08:00,35.8,29.3,29.83,North,0,0.0,0.0,77,0.00,,OVC036,0.00,VWS V12.08,2013-01-10 08:08:00,
2013-01-10 00:13:00,35.6,29.4,29.83,North,0,0.0,0.0,78,0.00,,OVC036,0.00,VWS V12.08,2013-01-10 08:13:00,
2013-01-10 00:18:00,35.6,29.4,29.83,North,0,0.0,0.0,78,0.00,,OVC036,0.00,VWS V12.08,2013-01-10 08:18:00,
2013-01-10 00:23:00,35.8,29.9,29.83,North,0,0.0,0.0,79,0.00,,OVC036,0.00,VWS V12.08,2013-01-10 08:23:00,
2013-01-10 00:28:00,35.6,29.7,29.83,North,0,0.0,0.0,79,0.00,,OVC036,0.00,VWS V12.08,2013-01-10 08:28:00,
2013-01-10 00:33:00,35.4,29.9,29.83,North,0,0.0,0.0,80,0.00,,OVC036,0.00,VWS V12.08,2013-01-10 08:33:00,
2013-01-10 00:38:00,35.4,29.9,29.83,North,0,0.0,0.0,80,0.00,,OVC036,0.00,VWS V12.08,2013-01-10 08:38:00,
2013-01-10 00:43:00,35.4,29.9,29.83,North,0,0.0,0.0,80,0.00,,OVC036,0.00,VWS V12.08,2013-01-10 08:43:00,
2013-01-10 00:48:00,35.2,30.0,29.83,North,0,0.0,0.0,81,0.00,,OVC036,0.00,VWS V12.08,2013-01-10 08:48:00,
2013-01-10 00:53:00,35.2,30.0,29.83,North,0,0.0,0.0,81,0.00,,OVC036,0.00,VWS V12.08,2013-01-10 08:53:00,
2013-01-10 00:58:00,35.2,30.0,29.83,North,0,0.0,0.0,81,0.00,,OVC036,0.00,VWS V12.08,2013-01-10 08:58:00,
2013-01-10 01:03:00,35.2,30.3,29.83,North,0,0.0,0.0,82,0.00,,OVC036,0.00,VWS V12.08,2013-01-10 09:03:00,
2013-01-10 01:08:00,35.4,30.8,29.83,North,0,0.0,0.0,83,0.00,,OVC036,0.00,VWS V12.08,2013-01-10 09:08:00,
2013-01-10 01:13:00,35.6,31.0,29.83,North,0,0.0,0.0,83,0.00,,OVC036,0.00,VWS V12.08,2013-01-10 09:13:00,
2013-01-10 01:18:00,35.4,30.8,29.83,North,0,0.0,0.0,83,0.00,,OVC036,0.00,VWS V12.08,2013-01-10 09:18:00,
2013-01-10 01:23:00,35.2,30.6,29.83,North,0,0.0,0.0,83,0.00,,OVC036,0.00,VWS V12.08,2013-01-10 09:23:00,
2013-01-10 01:28:00,35.1,30.1,29.83,North,0,0.0,0.0,82,0.00,,OVC036,0.00,VWS V12.08,2013-01-10 09:28:00,
2013-01-10 01:33:00,34.9,30.0,29.83,North,0,0.0,0.0,82,0.00,,OVC036,0.00,VWS V12.08,2013-01-10 09:33:00,
2013-01-10 01:38:00,34.9,30.2,29.83,North,0,0.0,0.0,83,0.00,,OVC036,0.00,VWS V12.08,2013-01-10 09:38:00,
2013-01-10 01:43:00,34.9,30.2,29.85,North,0,0.0,0.0,83,0.00,,OVC036,0.00,VWS V12.08,2013-01-10 09:43:00,
2013-01-10 01:48:00,34.9,30.2,29.85,North,0,0.0,0.0,83,0.00,,OVC036,0.00,VWS V12.08,2013-01-10 09:48:00,
2013-01-10 01:53:00,34.9,30.5,29.85,North,0,0.0,0.0,84,0.00,,OVC036,0.00,VWS V12.08,2013-01-10 09:53:00,
2013-01-10 01:58:00,34.9,30.5,29.85,North,0,0.0,0.0,84,0.00,,OVC036,0.00,VWS V12.08,2013-01-10 09:58:00,
2013-01-10 02:03:00,35.1,30.7,29.85,North,0,0.0,0.0,84,0.00,,OVC036,0.00,VWS V12.08,2013-01-10 10:03:00,
2013-01-10 02:08:00,35.1,30.7,29.85,North,0,0.0,0.0,84,0.00,,OVC036,0.00,VWS V12.08,2013-01-10 10:08:00,
2013-01-10 02:13:00,35.2,31.2,29.85,North,0,0.0,0.0,85,0.00,,OVC036,0.00,VWS V12.08,2013-01-10 10:13:00,
2013-01-10 02:18:00,35.4,31.4,29.85,North,0,0.0,0.0,85,0.00,,OVC036,0.00,VWS V12.08,2013-01-10 10:18:00,
2013-01-10 02:23:00,35.2,31.2,29.85,North,0,0.0,0.0,85,0.00,,OVC036,0.00,VWS V12.08,2013-01-10 10:23:00,
2013-01-10 02:28:00,35.4,31.4,29.85,North,0,0.0,0.0,85,0.00,,OVC036,0.00,VWS V12.08,2013-01-10 10:28:00,
2013-01-10 02:33:00,35.4,31.4,29.85,North,0,0.0,0.0,85,0.00,,OVC036,0.00,VWS V12.08,2013-01-10 10:33:00,
2013-01-10 02:38:00,35.4,31.4,29.85,North,0,0.0,0.0,85,0.00,,OVC036,0.00,VWS V12.08,2013-01-10 10:38:00,
2013-01-10 02:43:00,35.4,31.4,29.85,North,0,0.0,0.0,85,0.00,,OVC036,0.00,VWS V12.08,2013-01-10 10:43:00,
2013-01-10 02:48:00,35.4,31.4,29.85,North,0,0.0,0.0,85,0.00,,OVC036,0.00,VWS V12.08,2013-01-10 10:48:00,
2013-01-10 02:53:00,35.4,31.4,29.85,North,0,0.0,0.0,85,0.00,,OVC036,0.00,VWS V12.08,2013-01-10 10:53:00,
2013-01-10 02:58:00,35.4,31.4,29.85,North,0,0.0,0.0,85,0.00,,OVC036,0.00,VWS V12.08,2013-01-10 10:58:00,
2013-01-10 03:03:00,35.4,31.7,29.85,North,0,0.0,0.0,86,0.00,,OVC036,0.00,VWS V12.08,2013-01-10 11:03:00,
2013-01-10 03:08:00,35.4,31.7,29.88,North,0,0.0,0.0,86,0.00,,OVC036,0.00,VWS V12.08,2013-01-10 11:08:00,
2013-01-10 03:13:00,35.4,31.7,29.88,North,0,0.0,0.0,86,0.00,,OVC036,0.00,VWS V12.08,2013-01-10 11:13:00,
2013-01-10 03:18:00,35.4,31.7,29.88,North,0,0.0,0.0,86,0.00,,OVC036,0.00,VWS V12.08,2013-01-10 11:18:00,
2013-01-10 03:23:00,35.6,31.8,29.88,North,0,0.0,0.0,86,0.00,,OVC036,0.00,VWS V12.08,2013-01-10 11:23:00,
2013-01-10 03:28:00,35.6,31.8,29.88,North,0,0.0,0.0,86,0.00,,OVC036,0.00,VWS V12.08,2013-01-10 11:28:00,
2013-01-10 03:33:00,35.8,32.3,29.88,North,0,0.0,0.0,87,0.00,,OVC036,0.00,VWS V12.08,2013-01-10 11:33:00,
2013-01-10 03:38:00,35.8,32.3,29.88,North,0,0.0,0.0,87,0.00,,OVC036,0.00,VWS V12.08,2013-01-10 11:38:00,
2013-01-10 03:43:00,35.6,31.8,29.88,North,0,0.0,0.0,86,0.00,,OVC036,0.00,VWS V12.08,2013-01-10 11:43:00,
2013-01-10 03:48:00,35.6,31.8,29.88,North,0,0.0,0.0,86,0.00,,OVC036,0.00,VWS V12.08,2013-01-10 11:48:00,
2013-01-10 03:53:00,35.6,31.8,29.88,North,0,0.0,0.0,86,0.00,,OVC036,0.00,VWS V12.08,2013-01-10 11:53:00,
2013-01-10 03:58:00,35.8,32.0,29.88,North,0,0.0,0.0,86,0.00,,OVC036,0.00,VWS V12.08,2013-01-10 11:58:00,
2013-01-10 04:03:00,35.8,32.3,29.88,North,0,0.0,0.0,87,0.00,,OVC036,0.00,VWS V12.08,2013-01-10 12:03:00,
2013-01-10 04:08:00,35.8,32.3,29.88,North,0,0.0,0.0,87,0.00,,OVC036,0.00,VWS V12.08,2013-01-10 12:08:00,
2013-01-10 04:13:00,35.8,32.3,29.88,North,0,0.0,0.0,87,0.00,,OVC036,0.00,VWS V12.08,2013-01-10 12:13:00,
2013-01-10 04:18:00,35.8,32.3,29.88,North,0,0.0,0.0,87,0.00,,OVC036,0.00,VWS V12.08,2013-01-10 12:18:00,
2013-01-10 04:23:00,36.0,32.5,29.88,North,0,0.0,0.0,87,0.00,,OVC036,0.00,VWS V12.08,2013-01-10 12:23:00,
2013-01-10 04:28:00,36.0,32.5,29.88,North,0,0.0,0.0,87,0.00,,OVC036,0.00,VWS V12.08,2013-01-10 12:28:00,
2013-01-10 04:33:00,35.8,32.3,29.88,North,0,0.0,0.0,87,0.00,,OVC036,0.00,VWS V12.08,2013-01-10 12:33:00,
2013-01-10 04:38:00,35.8,32.3,29.88,North,0,0.0,0.0,87,0.00,,OVC036,0.00,VWS V12.08,2013-01-10 12:38:00,
2013-01-10 04:43:00,35.8,32.3,29.88,North,0,0.0,0.0,87,0.00,,OVC036,0.00,VWS V12.08,2013-01-10 12:43:00,
2013-01-10 04:48:00,35.8,32.3,29.88,North,0,0.0,0.0,87,0.00,,OVC036,0.00,VWS V12.08,2013-01-10 12:48:00,
2013-01-10 04:53:00,35.6,31.8,29.88,North,0,0.0,0.0,86,0.00,,OVC036,0.00,VWS V12.08,2013-01-10 12:53:00,
2013-01-10 04:58:00,35.6,31.8,29.88,North,0,0.0,0.0,86,0.00,,OVC036,0.00,VWS V12.08,2013-01-10 12:58:00,
2013-01-10 05:03:00,35.6,31.8,29.88,North,0,0.0,0.0,86,0.00,,OVC036,0.00,VWS V12.08,2013-01-10 13:03:00,
2013-01-10 05:08:00,35.6,32.1,29.88,North,0,0.0,0.0,87,0.00,,OVC036,0.00,VWS V12.08,2013-01-10 13:08:00,
2013-01-10 05:13:00,35.6,32.1,29.88,North,0,0.0,0.0,87,0.00,,OVC036,0.00,VWS V12.08,2013-01-10 13:13:00,
2013-01-10 05:18:00,35.6,32.1,29.88,North,0,0.0,0.0,87,0.00,,OVC036,0.00,VWS V12.08,2013-01-10 13:18:00,
2013-01-10 05:23:00,35.6,32.1,29.88,North,0,0.0,0.0,87,0.00,,OVC036,0.00,VWS V12.08,2013-01-10 13:23:00,
2013-01-10 05:28:00,35.6,32.1,29.88,North,0,0.0,0.0,87,0.00,,OVC036,0.00,VWS V12.08,2013-01-10 13:28:00,
2013-01-10 05:33:00,35.6,32.1,29.88,North,0,0.0,0.0,87,0.00,,OVC036,0.00,VWS V12.08,2013-01-10 13:33:00,
2013-01-10 05:38:00,35.6,32.1,29.88,North,0,0.0,0.0,87,0.00,,OVC036,0.00,VWS V12.08,2013-01-10 13:38:00,
2013-01-10 05:43:00,35.6,32.1,29.88,North,0,0.0,0.0,87,0.00,,OVC036,0.00,VWS V12.08,2013-01-10 13:43:00,
2013-01-10 05:48:00,35.6,32.1,29.88,North,0,0.0,0.0,87,0.00,,OVC036,0.00,VWS V12.08,2013-01-10 13:48:00,
2013-01-10 05:53:00,35.6,32.1,29.88,North,0,0.0,0.0,87,0.00,,OVC036,0.00,VWS V12.08,2013-01-10 13:53:00,
2013-01-10 05:58:00,35.6,32.1,29.88,North,0,0.0,0.0,87,0.00,,OVC036,0.00,VWS V12.08,2013-01-10 13:58:00,
2013-01-10 06:03:00,35.6,32.4,29.88,North,0,0.0,0.0,88,0.00,,OVC036,0.00,VWS V12.08,2013-01-10 14:03:00,
2013-01-10 06:08:00,35.6,32.4,29.88,North,0,0.0,0.0,88,0.00,,OVC036,0.00,VWS V12.08,2013-01-10 14:08:00,
2013-01-10 06:13:00,35.6,32.1,29.91,North,0,0.0,0.0,87,0.00,,OVC036,0.00,VWS V12.08,2013-01-10 14:13:00,
2013-01-10 06:18:00,35.6,32.1,29.91,North,0,0.0,0.0,87,0.00,,OVC036,0.00,VWS V12.08,2013-01-10 14:18:00,
2013-01-10 06:23:00,35.6,32.1,29.91,North,0,0.0,0.0,87,0.00,,OVC036,0.00,VWS V12.08,2013-01-10 14:23:00,
2013-01-10 06:28:00,35.6,32.1,29.91,North,0,0.0,0.0,87,0.00,,OVC036,0.00,VWS V12.08,2013-01-10 14:28:00,
2013-01-10 06:33:00,35.6,32.1,29.91,North,0,0.0,0.0,87,0.00,,OVC036,0.00,VWS V12.08,2013-01-10 14:33:00,
2013-01-10 06:38:00,35.6,32.1,29.91,North,0,0.0,0.0,87,0.00,,OVC036,0.00,VWS V12.08,2013-01-10 14:38:00,
2013-01-10 06:43:00,35.6,32.1,29.91,North,0,0.0,0.0,87,0.00,,OVC036,0.00,VWS V12.08,2013-01-10 14:43:00,
2013-01-10 06:48:00,35.6,32.1,29.91,North,0,0.0,0.0,87,0.00,,OVC036,0.00,VWS V12.08,2013-01-10 14:48:00,
2013-01-10 06:53:00,35.4,32.2,29.91,North,0,0.0,0.0,88,0.00,,OVC036,0.00,VWS V12.08,2013-01-10 14:53:00,
2013-01-10 06:58:00,35.4,31.9,29.91,North,0,0.0,0.0,87,0.00,,OVC036,0.00,VWS V12.08,2013-01-10 14:58:00,
2013-01-10 07:03:00,35.2,31.8,29.91,North,0,0.0,0.0,87,0.00,,OVC036,0.00,VWS V12.08,2013-01-10 15:03:00,
2013-01-10 07:08:00,35.2,31.8,29.91,North,0,0.0,0.0,87,0.00,,OVC036,0.00,VWS V12.08,2013-01-10 15:08:00,
2013-01-10 07:13:00,35.2,31.8,29.91,North,0,0.0,0.0,87,0.00,,OVC036,0.00,VWS V12.08,2013-01-10 15:13:00,
2013-01-10 07:18:00,35.2,32.0,29.91,North,0,0.0,0.0,88,0.00,,OVC036,0.00,VWS V12.08,2013-01-10 15:18:00,
2013-01-10 07:23:00,35.2,32.0,29.91,North,0,0.0,0.0,88,0.00,,OVC036,0.00,VWS V12.08,2013-01-10 15:23:00,
2013-01-10 07:28:00,35.4,32.2,29.94,North,0,0.0,0.0,88,0.00,,OVC036,0.00,VWS V12.08,2013-01-10 15:28:00,
2013-01-10 07:33:00,35.4,32.2,29.94,North,0,0.0,0.0,88,0.00,,OVC036,0.00,VWS V12.08,2013-01-10 15:33:00,
2013-01-10 07:38:00,35.6,32.4,29.94,North,0,0.0,0.0,88,0.00,,OVC036,0.00,VWS V12.08,2013-01-10 15:38:00,
2013-01-10 07:43:00,35.4,32.2,29.94,North,0,0.0,0.0,88,0.00,,OVC036,0.00,VWS V12.08,2013-01-10 15:43:00,
2013-01-10 07:48:00,35.4,32.2,29.94,North,0,0.0,0.0,88,0.00,,OVC036,0.00,VWS V12.08,2013-01-10 15:48:00,
2013-01-10 07:53:00,35.4,32.2,29.94,North,0,0.0,0.0,88,0.00,,OVC036,0.00,VWS V12.08,2013-01-10 15:53:00,
2013-01-10 07:58:00,35.4,32.2,29.94,North,0,0.0,0.0,88,0.00,,OVC036,0.00,VWS V12.08,2013-01-10 15:58:00,
2013-01-10 08:03:00,35.2,32.0,29.94,North,0,0.0,0.0,88,0.00,,OVC036,0.00,VWS V12.08,2013-01-10 16:03:00,
2013-01-10 08:08:00,35.1,31.9,29.94,North,0,0.0,0.0,88,0.00,,OVC036,0.00,VWS V12.08,2013-01-10 16:08:00,
2013-01-10 08:13:00,35.1,31.9,29.94,North,0,0.0,0.0,88,0.00,,OVC036,0.00,VWS V12.08,2013-01-10 16:13:00,
2013-01-10 08:18:00,35.2,32.0,29.94,North,0,0.0,0.0,88,0.00,,OVC036,0.00,VWS V12.08,2013-01-10 16:18:00,
2013-01-10 08:23:00,35.1,31.9,29.94,North,0,0.0,0.0,88,0.00,,OVC036,0.00,VWS V12.08,2013-01-10 16:23:00,
2013-01-10 08:28:00,35.1,31.9,29.94,North,0,0.0,0.0,88,0.00,,OVC036,0.00,VWS V12.08,2013-01-10 16:28:00,
2013-01-10 08:33:00,35.1,31.9,29.94,North,0,0.0,0.0,88,0.00,,OVC036,0.00,VWS V12.08,2013-01-10 16:33:00,
2013-01-10 08:38:00,35.1,31.9,29.97,North,0,0.0,0.0,88,0.00,,OVC036,0.00,VWS V12.08,2013-01-10 16:38:00,
2013-01-10 08:43:00,35.2,32.0,29.97,North,0,0.0,0.0,88,0.00,,OVC036,0.00,VWS V12.08,2013-01-10 16:43:00,
2013-01-10 08:48:00,35.4,32.2,29.97,North,0,0.0,0.0,88,0.00,,OVC036,0.04,VWS V12.08,2013-01-10 16:48:00,
2013-01-10 08:53:00,35.2,32.0,29.97,North,0,0.0,0.0,88,0.04,,OVC036,0.04,VWS V12.08,2013-01-10 16:53:00,
2013-01-10 08:58:00,35.2,32.0,29.97,North,0,0.0,0.0,88,0.04,,OVC036,0.04,VWS V12.08,2013-01-10 16:58:00,
2013-01-10 09:03:00,35.2,32.0,29.97,North,0,0.0,0.0,88,0.04,,OVC036,0.04,VWS V12.08,2013-01-10 17:03:00,
2013-01-10 09:08:00,35.2,32.0,29.97,North,0,0.0,0.0,88,0.04,,OVC036,0.04,VWS V12.08,2013-01-10 17:08:00,
2013-01-10 09:13:00,35.4,32.2,29.97,North,0,0.0,0.0,88,0.04,,OVC036,0.04,VWS V12.08,2013-01-10 17:13:00,
2013-01-10 09:18:00,35.6,32.4,29.97,North,0,0.0,0.0,88,0.04,,OVC036,0.04,VWS V12.08,2013-01-10 17:18:00,
2013-01-10 09:23:00,35.6,32.4,29.97,North,0,0.0,0.0,88,0.04,,OVC036,0.04,VWS V12.08,2013-01-10 17:23:00,
2013-01-10 09:28:00,35.6,32.4,29.97,North,0,0.0,0.0,88,0.04,,OVC036,0.04,VWS V12.08,2013-01-10 17:28:00,
2013-01-10 09:33:00,35.6,32.4,29.97,North,0,0.0,0.0,88,0.04,,OVC036,0.04,VWS V12.08,2013-01-10 17:33:00,
2013-01-10 09:38:00,35.8,32.6,29.97,North,0,0.0,0.0,88,0.04,,OVC036,0.04,VWS V12.08,2013-01-10 17:38:00,
2013-01-10 09:43:00,36.1,32.9,29.97,North,0,0.0,0.0,88,0.04,,OVC036,0.04,VWS V12.08,2013-01-10 17:43:00,
2013-01-10 09:48:00,36.1,32.9,29.97,North,0,0.0,0.0,88,0.04,,OVC036,0.04,VWS V12.08,2013-01-10 17:48:00,
2013-01-10 09:53:00,36.1,32.7,29.97,North,0,0.0,0.0,87,0.04,,OVC036,0.04,VWS V12.08,2013-01-10 17:53:00,
2013-01-10 09:58:00,36.1,32.1,29.97,North,0,0.0,0.0,85,0.04,,OVC036,0.04,VWS V12.08,2013-01-10 17:58:00,
2013-01-10 10:03:00,36.3,31.1,29.97,North,0,0.0,0.0,81,0.00,,OVC036,0.04,VWS V12.08,2013-01-10 18:03:00,
2013-01-10 10:08:00,36.3,31.1,29.97,North,0,0.0,0.0,81,0.00,,OVC036,0.04,VWS V12.08,2013-01-10 18:08:00,
2013-01-10 10:13:00,36.3,30.8,29.97,North,0,0.0,0.0,80,0.00,,OVC036,0.04,VWS V12.08,2013-01-10 18:13:00,
2013-01-10 10:18:00,36.3,30.4,29.97,North,0,0.0,0.0,79,0.00,,OVC036,0.04,VWS V12.08,2013-01-10 18:18:00,
2013-01-10 10:23:00,36.5,30.6,29.97,North,0,0.0,0.0,79,0.00,,OVC036,0.04,VWS V12.08,2013-01-10 18:23:00,
2013-01-10 10:28:00,36.7,30.8,29.97,North,0,0.0,0.0,79,0.00,,OVC036,0.04,VWS V12.08,2013-01-10 18:28:00,
2013-01-10 10:33:00,36.5,30.3,29.97,North,0,0.0,0.0,78,0.00,,OVC036,0.04,VWS V12.08,2013-01-10 18:33:00,
2013-01-10 10:38:00,36.7,30.2,29.97,North,0,0.0,0.0,77,0.00,,OVC036,0.04,VWS V12.08,2013-01-10 18:38:00,
2013-01-10 10:43:00,36.7,29.8,29.97,North,0,0.0,0.0,76,0.00,,OVC036,0.04,VWS V12.08,2013-01-10 18:43:00,
2013-01-10 10:48:00,36.9,30.0,29.97,North,0,0.0,0.0,76,0.00,,OVC036,0.04,VWS V12.08,2013-01-10 18:48:00,
2013-01-10 10:53:00,37.0,30.2,29.97,North,0,0.0,0.0,76,0.00,,OVC036,0.04,VWS V12.08,2013-01-10 18:53:00,
2013-01-10 10:58:00,36.9,29.7,29.97,North,0,0.0,0.0,75,0.00,,OVC036,0.04,VWS V12.08,2013-01-10 18:58:00,
2013-01-10 11:03:00,36.9,29.7,29.97,North,0,0.0,0.0,75,0.00,,OVC036,0.04,VWS V12.08,2013-01-10 19:03:00,
2013-01-10 11:08:00,36.9,29.0,29.97,North,0,0.0,0.0,73,0.00,,OVC036,0.04,VWS V12.08,2013-01-10 19:08:00,
2013-01-10 11:13:00,36.7,28.9,29.97,North,0,0.0,0.0,73,0.00,,OVC036,0.04,VWS V12.08,2013-01-10 19:13:00,
2013-01-10 11:18:00,36.9,29.4,29.97,North,0,0.0,0.0,74,0.00,,OVC036,0.04,VWS V12.08,2013-01-10 19:18:00,
2013-01-10 11:23:00,36.9,29.4,29.97,North,0,0.0,0.0,74,0.00,,OVC036,0.04,VWS V12.08,2013-01-10 19:23:00,
2013-01-10 11:28:00,37.0,29.2,29.97,North,0,0.0,0.0,73,0.00,,OVC036,0.04,VWS V12.08,2013-01-10 19:28:00,
2013-01-10 11:33:00,37.0,28.5,29.97,North,0,0.0,0.0,71,0.00,,OVC036,0.04,VWS V12.08,2013-01-10 19:33:00,
2013-01-10 11:38:00,37.2,29.0,29.97,North,0,0.0,0.0,72,0.00,,OVC036,0.04,VWS V12.08,2013-01-10 19:38:00,
2013-01-10 11:43:00,37.2,28.7,29.97,North,0,0.0,0.0,71,0.00,,OVC036,0.04,VWS V12.08,2013-01-10 19:43:00,
2013-01-10 11:48:00,37.2,28.7,29.97,North,0,0.0,0.0,71,0.00,,OVC036,0.04,VWS V12.08,2013-01-10 19:48:00,
2013-01-10 11:53:00,37.4,28.9,29.94,North,0,0.0,0.0,71,0.00,,OVC036,0.04,VWS V12.08,2013-01-10 19:53:00,
2013-01-10 11:58:00,37.0,28.2,29.94,North,0,0.0,0.0,70,0.00,,OVC036,0.04,VWS V12.08,2013-01-10 19:58:00,
2013-01-10 12:03:00,37.0,27.5,29.94,North,0,0.0,0.0,68,0.00,,OVC036,0.04,VWS V12.08,2013-01-10 20:03:00,
2013-01-10 12:08:00,37.0,27.8,29.94,North,0,0.0,0.0,69,0.00,,OVC036,0.04,VWS V12.08,2013-01-10 20:08:00,
2013-01-10 12:13:00,37.0,27.8,29.94,North,0,0.0,0.0,69,0.00,,OVC036,0.04,VWS V12.08,2013-01-10 20:13:00,
2013-01-10 12:18:00,37.0,27.8,29.94,North,0,0.0,0.0,69,0.00,,OVC036,0.04,VWS V12.08,2013-01-10 20:18:00,
2013-01-10 12:23:00,37.2,28.0,29.94,North,0,0.0,0.0,69,0.00,,OVC036,0.04,VWS V12.08,2013-01-10 20:23:00,
2013-01-10 12:28:00,37.2,28.4,29.94,North,0,0.0,0.0,70,0.00,,OVC036,0.04,VWS V12.08,2013-01-10 20:28:00,
2013-01-10 12:33:00,37.2,28.0,29.94,North,0,0.0,0.0,69,0.00,,OVC036,0.04,VWS V12.08,2013-01-10 20:33:00,
2013-01-10 12:39:00,37.0,27.5,29.94,North,0,0.0,0.0,68,0.00,,OVC036,0.04,VWS V12.08,2013-01-10 20:39:00,
2013-01-10 12:44:00,37.2,28.0,29.94,North,0,0.0,0.0,69,0.00,,OVC036,0.04,VWS V12.08,2013-01-10 20:44:00,
2013-01-10 12:49:00,37.2,28.0,29.94,North,0,0.0,0.0,69,0.00,,OVC036,0.04,VWS V12.08,2013-01-10 20:49:00,
2013-01-10 12:54:00,37.4,28.5,29.94,North,0,0.0,0.0,70,0.00,,OVC036,0.04,VWS V12.08,2013-01-10 20:54:00,
2013-01-10 12:59:00,37.4,28.5,29.94,North,0,0.0,0.0,70,0.00,,OVC036,0.04,VWS V12.08,2013-01-10 20:59:00,
2013-01-10 13:04:00,37.6,29.0,29.94,North,0,0.0,0.0,71,0.00,,OVC036,0.04,VWS V12.08,2013-01-10 21:04:00,
2013-01-10 13:09:00,37.6,28.7,29.94,North,0,0.0,0.0,70,0.00,,OVC036,0.04,VWS V12.08,2013-01-10 21:09:00,
2013-01-10 13:14:00,37.6,28.0,29.94,North,0,0.0,0.0,68,0.00,,OVC036,0.04,VWS V12.08,2013-01-10 21:14:00,
2013-01-10 13:19:00,37.8,28.2,29.94,North,0,0.0,0.0,68,0.00,,OVC036,0.04,VWS V12.08,2013-01-10 21:19:00,
2013-01-10 13:24:00,37.8,28.2,29.94,North,0,0.0,0.0,68,0.00,,OVC036,0.04,VWS V12.08,2013-01-10 21:24:00,
2013-01-10 13:29:00,37.6,28.0,29.94,North,0,0.0,0.0,68,0.00,,OVC036,0.04,VWS V12.08,2013-01-10 21:29:00,
2013-01-10 13:34:00,37.6,28.0,29.94,North,0,0.0,0.0,68,0.00,,OVC036,0.04,VWS V12.08,2013-01-10 21:34:00,
2013-01-10 13:39:00,37.6,28.0,29.94,North,0,0.0,0.0,68,0.00,,OVC036,0.04,VWS V12.08,2013-01-10 21:39:00,
2013-01-10 13:44:00,37.4,26.7,29.94,North,0,0.0,0.0,65,0.00,,OVC036,0.04,VWS V12.08,2013-01-10 21:44:00,
2013-01-10 13:49:00,37.4,27.1,29.94,North,0,0.0,0.0,66,0.00,,OVC036,0.04,VWS V12.08,2013-01-10 21:49:00,
2013-01-10 13:54:00,37.6,27.6,29.94,North,0,0.0,0.0,67,0.00,,OVC036,0.04,VWS V12.08,2013-01-10 21:54:00,
2013-01-10 13:59:00,37.6,27.6,29.94,North,0,0.0,0.0,67,0.00,,OVC036,0.04,VWS V12.08,2013-01-10 21:59:00,
2013-01-10 14:04:00,37.6,27.3,29.94,North,0,0.0,0.0,66,0.00,,OVC036,0.04,VWS V12.08,2013-01-10 22:04:00,
2013-01-10 14:09:00,37.6,27.6,29.94,North,0,0.0,0.0,67,0.00,,OVC036,0.04,VWS V12.08,2013-01-10 22:09:00,
2013-01-10 14:14:00,37.6,27.6,29.94,North,0,0.0,0.0,67,0.00,,OVC036,0.04,VWS V12.08,2013-01-10 22:14:00,
2013-01-10 14:19:00,37.6,28.0,29.94,North,0,0.0,0.0,68,0.00,,OVC036,0.04,VWS V12.08,2013-01-10 22:19:00,
2013-01-10 14:24:00,37.6,27.6,29.97,North,0,0.0,0.0,67,0.00,,OVC036,0.04,VWS V12.08,2013-01-10 22:24:00,
2013-01-10 14:29:00,37.8,27.8,29.97,North,0,0.0,0.0,67,0.00,,OVC036,0.04,VWS V12.08,2013-01-10 22:29:00,
2013-01-10 14:34:00,37.8,27.8,29.97,North,0,0.0,0.0,67,0.00,,OVC036,0.04,VWS V12.08,2013-01-10 22:34:00,
2013-01-10 14:39:00,37.8,27.8,29.97,North,0,0.0,0.0,67,0.00,,OVC036,0.04,VWS V12.08,2013-01-10 22:39:00,
2013-01-10 14:44:00,37.8,27.8,29.97,North,0,0.0,0.0,67,0.00,,OVC036,0.04,VWS V12.08,2013-01-10 22:44:00,
2013-01-10 14:49:00,37.9,28.0,29.97,North,0,0.0,0.0,67,0.00,,OVC036,0.04,VWS V12.08,2013-01-10 22:49:00,
2013-01-10 14:54:00,37.9,28.3,29.97,North,0,0.0,0.0,68,0.00,,OVC036,0.04,VWS V12.08,2013-01-10 22:54:00,
2013-01-10 15:00:00,37.9,28.3,29.97,North,0,0.0,0.0,68,0.00,,OVC036,0.04,VWS V12.08,2013-01-10 23:00:00,
2013-01-10 15:05:00,37.9,28.3,29.97,North,0,0.0,0.0,68,0.00,,OVC036,0.04,VWS V12.08,2013-01-10 23:05:00,
2013-01-10 15:10:00,37.9,28.0,29.97,North,0,0.0,0.0,67,0.00,,OVC036,0.04,VWS V12.08,2013-01-10 23:10:00,
2013-01-10 15:15:00,37.8,27.4,29.97,North,0,0.0,0.0,66,0.00,,OVC036,0.04,VWS V12.08,2013-01-10 23:15:00,
2013-01-10 15:20:00,37.8,27.8,29.97,North,0,0.0,0.0,67,0.00,,OVC036,0.04,VWS V12.08,2013-01-10 23:20:00,
2013-01-10 15:25:00,37.8,27.8,29.97,North,0,0.0,0.0,67,0.00,,OVC036,0.04,VWS V12.08,2013-01-10 23:25:00,
2013-01-10 15:30:00,37.8,27.8,29.97,North,0,0.0,0.0,67,0.00,,OVC036,0.04,VWS V12.08,2013-01-10 23:30:00,
2013-01-10 15:35:00,37.8,27.8,29.97,North,0,0.0,0.0,67,0.00,,OVC036,0.04,VWS V12.08,2013-01-10 23:35:00,
2013-01-10 15:40:00,37.8,27.4,29.97,North,0,0.0,0.0,66,0.00,,OVC036,0.04,VWS V12.08,2013-01-10 23:40:00,
2013-01-10 15:45:00,37.6,27.6,29.97,North,0,0.0,0.0,67,0.00,,OVC036,0.04,VWS V12.08,2013-01-10 23:45:00,
2013-01-10 15:50:00,37.6,27.6,29.97,North,0,0.0,0.0,67,0.00,,OVC036,0.04,VWS V12.08,2013-01-10 23:50:00,
2013-01-10 15:55:00,37.4,27.5,29.97,North,0,0.0,0.0,67,0.00,,OVC036,0.04,VWS V12.08,2013-01-10 23:55:00,
2013-01-10 16:00:00,37.4,27.5,29.97,North,0,0.0,0.0,67,0.00,,OVC036,0.04,VWS V12.08,2013-01-11 00:00:00,
2013-01-10 16:05:00,37.2,27.6,29.97,North,0,0.0,0.0,68,0.00,,OVC036,0.04,VWS V12.08,2013-01-11 00:05:00,
2013-01-10 16:10:00,37.0,27.5,29.97,North,0,0.0,0.0,68,0.00,,OVC036,0.04,VWS V12.08,2013-01-11 00:10:00,
2013-01-10 16:15:00,37.0,27.5,29.97,North,0,0.0,0.0,68,0.00,,OVC036,0.04,VWS V12.08,2013-01-11 00:15:00,
2013-01-10 16:20:00,36.9,27.3,29.97,North,0,0.0,0.0,68,0.00,,OVC036,0.04,VWS V12.08,2013-01-11 00:20:00,
2013-01-10 16:25:00,36.7,27.1,29.97,North,0,0.0,0.0,68,0.00,,OVC036,0.04,VWS V12.08,2013-01-11 00:25:00,
2013-01-10 16:30:00,36.7,27.5,29.97,North,0,0.0,0.0,69,0.00,,OVC036,0.04,VWS V12.08,2013-01-11 00:30:00,
2013-01-10 16:35:00,36.5,27.7,29.97,North,0,0.0,0.0,70,0.00,,OVC036,0.04,VWS V12.08,2013-01-11 00:35:00,
2013-01-10 16:40:00,36.5,27.7,29.97,North,0,0.0,0.0,70,0.00,,OVC036,0.04,VWS V12.08,2013-01-11 00:40:00,
2013-01-10 16:45:00,36.1,27.3,29.97,North,0,0.0,0.0,70,0.00,,OVC036,0.04,VWS V12.08,2013-01-11 00:45:00,
2013-01-10 16:50:00,36.1,27.7,29.97,North,0,0.0,0.0,71,0.00,,OVC036,0.04,VWS V12.08,2013-01-11 00:50:00,
2013-01-10 16:55:00,36.0,27.5,29.97,North,0,0.0,0.0,71,0.00,,OVC036,0.04,VWS V12.08,2013-01-11 00:55:00,
2013-01-10 17:00:00,36.0,27.8,29.97,North,0,0.0,0.0,72,0.00,,OVC036,0.04,VWS V12.08,2013-01-11 01:00:00,
2013-01-10 17:05:00,36.0,27.8,29.97,North,0,0.0,0.0,72,0.00,,OVC036,0.04,VWS V12.08,2013-01-11 01:05:00,
2013-01-10 17:10:00,35.8,27.6,29.97,North,0,0.0,0.0,72,0.00,,OVC036,0.04,VWS V12.08,2013-01-11 01:10:00,
2013-01-10 17:15:00,35.6,27.5,29.97,North,0,0.0,0.0,72,0.00,,OVC036,0.04,VWS V12.08,2013-01-11 01:15:00,
2013-01-10 17:20:00,35.4,27.6,29.97,North,0,0.0,0.0,73,0.00,,OVC036,0.04,VWS V12.08,2013-01-11 01:20:00,
2013-01-10 17:25:00,35.4,27.6,29.97,North,0,0.0,0.0,73,0.00,,OVC036,0.04,VWS V12.08,2013-01-11 01:25:00,
2013-01-10 17:30:00,35.4,27.6,29.97,North,0,0.0,0.0,73,0.00,,OVC036,0.04,VWS V12.08,2013-01-11 01:30:00,
2013-01-10 17:35:00,35.2,27.8,29.97,North,0,0.0,0.0,74,0.00,,OVC036,0.04,VWS V12.08,2013-01-11 01:35:00,
2013-01-10 17:40:00,35.2,28.1,29.97,North,0,0.0,0.0,75,0.00,,OVC036,0.04,VWS V12.08,2013-01-11 01:40:00,
2013-01-10 17:45:00,35.6,28.8,29.97,North,0,0.0,0.0,76,0.00,,OVC036,0.04,VWS V12.08,2013-01-11 01:45:00,
2013-01-10 17:50:00,35.8,29.3,29.97,North,0,0.0,0.0,77,0.00,,OVC036,0.04,VWS V12.08,2013-01-11 01:50:00,
2013-01-10 17:56:00,35.8,29.0,29.97,North,0,0.0,0.0,76,0.00,,OVC036,0.04,VWS V12.08,2013-01-11 01:56:00,
2013-01-10 18:01:00,35.8,29.0,29.97,North,0,0.0,0.0,76,0.00,,OVC036,0.04,VWS V12.08,2013-01-11 02:01:00,
2013-01-10 18:06:00,35.8,28.3,29.97,North,0,0.0,0.0,74,0.00,,OVC036,0.04,VWS V12.08,2013-01-11 02:06:00,
2013-01-10 18:11:00,35.8,28.0,29.97,North,0,0.0,0.0,73,0.00,,OVC036,0.04,VWS V12.08,2013-01-11 02:11:00,
2013-01-10 18:16:00,35.8,27.6,29.97,North,0,0.0,0.0,72,0.00,,OVC036,0.04,VWS V12.08,2013-01-11 02:16:00,
2013-01-10 18:21:00,35.8,27.3,29.97,North,0,0.0,0.0,71,0.00,,OVC036,0.04,VWS V12.08,2013-01-11 02:21:00,
2013-01-10 18:26:00,35.8,27.3,29.97,North,0,0.0,0.0,71,0.00,,OVC036,0.04,VWS V12.08,2013-01-11 02:26:00,
2013-01-10 18:31:00,35.8,27.3,29.97,North,0,0.0,0.0,71,0.00,,OVC036,0.04,VWS V12.08,2013-01-11 02:31:00,
2013-01-10 18:36:00,35.6,27.1,29.97,North,0,0.0,0.0,71,0.00,,OVC036,0.04,VWS V12.08,2013-01-11 02:36:00,
2013-01-10 18:41:00,35.6,27.5,29.97,North,0,0.0,0.0,72,0.00,,OVC036,0.04,VWS V12.08,2013-01-11 02:41:00,
2013-01-10 18:46:00,35.6,27.5,29.97,North,0,0.0,0.0,72,0.00,,OVC036,0.04,VWS V12.08,2013-01-11 02:46:00,
2013-01-10 18:51:00,35.6,27.5,29.97,North,0,0.0,0.0,72,0.00,,OVC036,0.04,VWS V12.08,2013-01-11 02:51:00,
2013-01-10 18:56:00,35.6,27.5,29.97,North,0,0.0,0.0,72,0.00,,OVC036,0.04,VWS V12.08,2013-01-11 02:56:00,
2013-01-10 19:01:00,35.6,27.8,29.97,North,0,0.0,0.0,73,0.00,,OVC036,0.04,VWS V12.08,2013-01-11 03:01:00,
2013-01-10 19:06:00,35.8,28.3,29.97,North,0,0.0,0.0,74,0.00,,OVC036,0.04,VWS V12.08,2013-01-11 03:06:00,
2013-01-10 19:11:00,36.0,28.8,29.97,North,0,0.0,0.0,75,0.00,,OVC036,0.04,VWS V12.08,2013-01-11 03:11:00,
2013-01-10 19:16:00,36.0,29.1,29.97,North,0,0.0,0.0,76,0.00,,OVC036,0.04,VWS V12.08,2013-01-11 03:16:00,
2013-01-10 19:21:00,36.1,29.3,29.97,North,0,0.0,0.0,76,0.00,,OVC036,0.04,VWS V12.08,2013-01-11 03:21:00,
2013-01-10 19:26:00,36.0,29.1,29.97,North,0,0.0,0.0,76,0.00,,OVC036,0.04,VWS V12.08,2013-01-11 03:26:00,
2013-01-10 19:31:00,36.0,29.1,29.97,North,0,0.0,0.0,76,0.00,,OVC036,0.04,VWS V12.08,2013-01-11 03:31:00,
2013-01-10 19:36:00,35.8,29.0,29.97,North,0,0.0,0.0,76,0.00,,OVC036,0.04,VWS V12.08,2013-01-11 03:36:00,
2013-01-10 19:41:00,35.8,29.0,29.97,North,0,0.0,0.0,76,0.00,,OVC036,0.04,VWS V12.08,2013-01-11 03:41:00,
2013-01-10 19:46:00,35.6,28.8,29.97,North,0,0.0,0.0,76,0.00,,OVC036,0.04,VWS V12.08,2013-01-11 03:46:00,
2013-01-10 19:51:00,35.4,28.6,29.97,North,0,0.0,0.0,76,0.00,,OVC036,0.04,VWS V12.08,2013-01-11 03:51:00,
2013-01-10 19:56:00,35.1,28.3,29.97,North,0,0.0,0.0,76,0.00,,OVC036,0.04,VWS V12.08,2013-01-11 03:56:00,
2013-01-10 20:01:00,34.7,27.9,29.97,North,0,0.0,0.0,76,0.00,,OVC036,0.04,VWS V12.08,2013-01-11 04:01:00,
2013-01-10 20:06:00,34.5,27.8,29.97,North,0,0.0,0.0,76,0.00,,OVC036,0.04,VWS V12.08,2013-01-11 04:06:00,
2013-01-10 20:11:00,34.2,27.4,29.97,North,0,0.0,0.0,76,0.00,,OVC036,0.04,VWS V12.08,2013-01-11 04:11:00,
2013-01-10 20:16:00,34.0,27.2,29.97,North,0,0.0,0.0,76,0.00,,OVC036,0.04,VWS V12.08,2013-01-11 04:16:00,
2013-01-10 20:21:00,34.0,27.5,29.97,North,0,0.0,0.0,77,0.00,,OVC036,0.04,VWS V12.08,2013-01-11 04:21:00,
2013-01-10 20:26:00,33.8,27.4,29.97,North,0,0.0,0.0,77,0.00,,OVC036,0.04,VWS V12.08,2013-01-11 04:26:00,
2013-01-10 20:31:00,33.6,27.5,29.97,North,0,0.0,0.0,78,0.00,,OVC036,0.04,VWS V12.08,2013-01-11 04:31:00,
2013-01-10 20:36:00,33.6,27.5,29.97,North,0,0.0,0.0,78,0.00,,OVC036,0.04,VWS V12.08,2013-01-11 04:36:00,
2013-01-10 20:41:00,33.4,27.3,29.97,North,0,0.0,0.0,78,0.00,,OVC036,0.04,VWS V12.08,2013-01-11 04:41:00,
2013-01-10 20:46:00,33.4,27.6,29.97,North,0,0.0,0.0,79,0.00,,OVC036,0.04,VWS V12.08,2013-01-11 04:46:00,
2013-01-10 20:51:00,33.1,27.0,29.97,North,0,0.0,0.0,78,0.00,,OVC036,0.04,VWS V12.08,2013-01-11 04:51:00,
2013-01-10 20:56:00,32.9,26.8,29.97,North,0,0.0,0.0,78,0.00,,OVC036,0.04,VWS V12.08,2013-01-11 04:56:00,
2013-01-10 21:00:00,32.9,27.1,29.97,North,0,0.0,0.0,79,0.00,,OVC036,0.04,VWS V12.08,2013-01-11 05:00:00,
2013-01-10 21:03:00,32.9,27.4,29.97,North,0,0.0,0.0,80,0.00,,OVC036,0.04,VWS V12.08,2013-01-11 05:03:00,
2013-01-10 21:08:00,32.9,27.4,30.00,North,0,0.0,0.0,80,0.00,,OVC036,0.04,VWS V12.08,2013-01-11 05:08:00,
2013-01-10 21:13:00,32.9,27.7,30.00,North,0,0.0,0.0,81,0.00,,OVC036,0.04,VWS V12.08,2013-01-11 05:13:00,
2013-01-10 21:18:00,32.7,27.5,30.00,North,0,0.0,0.0,81,0.00,,OVC036,0.04,VWS V12.08,2013-01-11 05:18:00,
2013-01-10 21:23:00,32.7,27.5,30.00,North,0,0.0,0.0,81,0.00,,OVC036,0.04,VWS V12.08,2013-01-11 05:23:00,
2013-01-10 21:28:00,32.5,27.4,30.00,North,0,0.0,0.0,81,0.00,,OVC036,0.04,VWS V12.08,2013-01-11 05:28:00,
2013-01-10 21:33:00,32.4,27.2,30.00,North,0,0.0,0.0,81,0.00,,OVC036,0.04,VWS V12.08,2013-01-11 05:33:00,
2013-01-10 21:38:00,32.2,27.0,30.00,North,0,0.0,0.0,81,0.00,,OVC036,0.04,VWS V12.08,2013-01-11 05:38:00,
2013-01-10 21:43:00,32.0,27.1,30.00,North,0,0.0,0.0,82,0.00,,OVC036,0.04,VWS V12.08,2013-01-11 05:43:00,
2013-01-10 21:48:00,31.8,27.0,30.00,North,0,0.0,0.0,82,0.00,,OVC036,0.04,VWS V12.08,2013-01-11 05:48:00,
2013-01-10 21:53:00,31.8,27.0,30.00,North,0,0.0,0.0,82,0.00,,OVC036,0.04,VWS V12.08,2013-01-11 05:53:00,
2013-01-10 21:58:00,31.6,27.1,30.00,North,0,0.0,0.0,83,0.00,,OVC036,0.04,VWS V12.08,2013-01-11 05:58:00,
2013-01-10 22:03:00,31.6,27.1,30.00,North,0,0.0,0.0,83,0.00,,OVC036,0.04,VWS V12.08,2013-01-11 06:03:00,
2013-01-10 22:08:00,31.5,27.2,30.00,North,0,0.0,0.0,84,0.00,,OVC036,0.04,VWS V12.08,2013-01-11 06:08:00,
2013-01-10 22:13:00,31.5,27.2,30.00,North,0,0.0,0.0,84,0.00,,OVC036,0.04,VWS V12.08,2013-01-11 06:13:00,
2013-01-10 22:18:00,31.5,27.2,30.00,North,0,0.0,0.0,84,0.00,,OVC036,0.04,VWS V12.08,2013-01-11 06:18:00,
2013-01-10 22:23:00,31.5,27.5,30.00,North,0,0.0,0.0,85,0.00,,OVC036,0.04,VWS V12.08,2013-01-11 06:23:00,
2013-01-10 22:28:00,31.5,27.5,30.00,North,0,0.0,0.0,85,0.00,,OVC036,0.04,VWS V12.08,2013-01-11 06:28:00,
2013-01-10 22:33:00,31.5,27.5,30.00,North,0,0.0,0.0,85,0.00,,OVC036,0.04,VWS V12.08,2013-01-11 06:33:00,
2013-01-10 22:38:00,31.8,28.1,30.00,North,0,0.0,0.0,86,0.00,,OVC036,0.04,VWS V12.08,2013-01-11 06:38:00,
2013-01-10 22:43:00,32.0,28.6,30.00,North,0,0.0,0.0,87,0.00,,OVC036,0.04,VWS V12.08,2013-01-11 06:43:00,
2013-01-10 22:48:00,32.5,29.4,30.00,North,0,0.0,0.0,88,0.00,,OVC036,0.04,VWS V12.08,2013-01-11 06:48:00,
2013-01-10 22:53:00,32.9,29.7,30.00,North,0,0.0,0.0,88,0.00,,OVC036,0.04,VWS V12.08,2013-01-11 06:53:00,
2013-01-10 22:58:00,33.1,30.2,30.00,North,0,0.0,0.0,89,0.00,,OVC036,0.04,VWS V12.08,2013-01-11 06:58:00,
2013-01-10 23:03:00,33.6,31.0,30.00,North,0,0.0,0.0,90,0.00,,OVC036,0.04,VWS V12.08,2013-01-11 07:03:00,
2013-01-10 23:08:00,33.8,31.2,30.00,North,0,0.0,0.0,90,0.00,,OVC036,0.04,VWS V12.08,2013-01-11 07:08:00,
2013-01-10 23:13:00,33.6,31.0,30.00,North,0,0.0,0.0,90,0.00,,OVC036,0.04,VWS V12.08,2013-01-11 07:13:00,
2013-01-10 23:18:00,33.4,30.8,30.00,North,0,0.0,0.0,90,0.00,,OVC036,0.04,VWS V12.08,2013-01-11 07:18:00,
2013-01-10 23:23:00,33.1,30.2,30.00,North,0,0.0,0.0,89,0.00,,OVC036,0.04,VWS V12.08,2013-01-11 07:23:00,
2013-01-10 23:28:00,32.7,29.6,30.00,North,0,0.0,0.0,88,0.00,,OVC036,0.04,VWS V12.08,2013-01-11 07:28:00,
2013-01-10 23:33:00,32.5,29.1,30.00,North,0,0.0,0.0,87,0.00,,OVC036,0.04,VWS V12.08,2013-01-11 07:33:00,
2013-01-10 23:38:00,32.2,28.5,30.00,North,0,0.0,0.0,86,0.00,,OVC036,0.04,VWS V12.08,2013-01-11 07:38:00,
2013-01-10 23:43:00,31.8,27.8,30.00,North,0,0.0,0.0,85,0.00,,OVC036,0.04,VWS V12.08,2013-01-11 07:43:00,
2013-01-10 23:48:00,31.6,27.7,30.00,North,0,0.0,0.0,85,0.00,,OVC036,0.04,VWS V12.08,2013-01-11 07:48:00,
2013-01-10 23:53:00,31.5,27.5,30.00,North,0,0.0,0.0,85,0.00,,OVC036,0.04,VWS V12.08,2013-01-11 07:53:00,
2013-01-10 23:58:00,31.3,27.0,30.00,North,0,0.0,0.0,84,0.00,,OVC036,0.00,VWS V12.08,2013-01-11 07:58:00,